Location: Unspecified
(0.0000°N, 0.0000°E)
Time: 08:20:33
(UTC+00:00)

N. Korean satellite - Pass Details

Date: 29 April 2017
Orbit: 459 x 517 km, 97.2° (Epoch: 20 October)

Event Time Altitude Azimuth Distance (km) Brightness Sun altitude
Rises 18:58:06 0° 181° (S) 2,479 10.0 -14.7°
Reaches altitude 10° 19:00:13 10° 188° (S) 1,602 9.1 -15.2°
Maximum altitude 19:03:27 40° 259° (W) 685 7.8 -16.0°
Drops below altitude 10° 19:06:42 10° 330° (NNW) 1,600 9.8 -16.8°
Sets 19:08:48 0° 338° (NNW) 2,477 10.7 -17.3°
